This is the latest recevied weather packets stored in our database for station/object OE9XVI-6. If no packets are shown the sender has not sent any weather packets the latest 10 day(s).
| Time | Temp. | Humidity | Pressure | Rain* | Wind** | Luminosity | Snow |
|---|---|---|---|---|---|---|---|
| 1777242437 | 9.44° C | 53% | 1023.1 hPa | 0 mm | - | - | - |
| 1777241837 | 9.44° C | 51% | 1023.1 hPa | 0 mm | - | - | - |
| 1777241237 | 10° C | 51% | 1023 hPa | 0 mm | - | - | - |
| 1777240637 | 10° C | 50% | 1023.1 hPa | 0 mm | - | - | - |
| 1777240037 | 10° C | 50% | 1023.1 hPa | 0 mm | - | - | - |
| 1777239437 | 10° C | 50% | 1023.1 hPa | 0 mm | - | - | - |
| 1777238837 | 10° C | 33% | 1023.1 hPa | 0 mm | - | - | - |
| 1777238237 | 10° C | 49% | 1023.1 hPa | 0 mm | - | - | - |
| 1777237637 | 10° C | 49% | 1023.2 hPa | 0 mm | - | - | - |
| 1777237037 | 10° C | 48% | 1023.1 hPa | 0 mm | - | - | - |
| 1777236437 | 10.56° C | 49% | 1023.1 hPa | 0 mm | - | - | - |
| 1777235837 | 10.56° C | 48% | 1023.1 hPa | 0 mm | - | - | - |
| 1777235237 | 10.56° C | 48% | 1023.1 hPa | 0 mm | - | - | - |
| 1777234637 | 10.56° C | 48% | 1023.1 hPa | 0 mm | - | - | - |
| 1777234038 | 10.56° C | 48% | 1023.1 hPa | 0 mm | - | - | - |
| 1777233438 | 11.11° C | 47% | 1023.2 hPa | 0 mm | - | - | - |
| 1777232838 | 11.11° C | 46% | 1023 hPa | 0 mm | - | - | - |
| 1777232238 | 11.11° C | 46% | 1022.8 hPa | 0 mm | - | - | - |
| 1777231638 | 11.11° C | 41% | 1022.7 hPa | 0 mm | - | - | - |
| 1777231038 | 11.67° C | 45% | 1022.8 hPa | 0 mm | - | - | - |
| 1777230438 | 11.67° C | 45% | 1022.8 hPa | 0 mm | - | - | - |
| 1777229838 | 11.67° C | 44% | 1022.8 hPa | 0 mm | - | - | - |
| 1777229238 | 11.67° C | 43% | 1022.7 hPa | 0 mm | - | - | - |
| 1777228638 | 12.22° C | 41% | 1022.6 hPa | 0 mm | - | - | - |
| 1777228038 | 12.78° C | 39% | 1022.5 hPa | 0 mm | - | - | - |
* Rain latest hour (hover to see other rain measurements)
** Current wind speed in m/s (hover to see current wind gust speed)